Location: Colonia Mina de C?rbuni
(46.1667°N, 22.7167°E)
Time: 06:53:45
(UTC+00:00)

USA 281 - Pass Details

Date: 04 February 2023
Orbit: 1079 x 1080 km, 106.0° (Epoch: 19 March)

Event Time Altitude Azimuth Distance (km) Brightness Sun altitude
Rises 16:15:12 0° 20° (NNE) 3,890 5.8 -6.9°
Reaches altitude 10° 16:17:49 10° 15° (NNE) 2,931 5.2 -7.3°
Maximum altitude 16:23:59 45° 306° (NW) 1,449 4.3 -8.4°
Drops below altitude 10° 16:30:07 10° 236° (SW) 2,916 6.8 -9.4°
Sets 16:32:44 0° 230° (SW) 3,868 7.4 -9.8°
